Berlin, MD

2:45 PM EST on January 16, 2017 (GMT -0500)
Ocean City Municipal

Weather History for KOXB - October, 2011

Change the Weather History Date:

Wednesday, October 19, 2011

  Actual Average (KSBY) Record (KSBY)
Temperature  
Mean Temperature 67 °F -  
Max Temperature 71 °F 66 °F 86 °F (2016)
Min Temperature 64 °F 45 °F 25 °F (1940)
Cooling Degree Days 2    
Growing Degree Days 17 (Base 50)    
Moisture  
Dew Point 66 °F    
Average Humidity 96    
Maximum Humidity 100    
Minimum Humidity 88    
Precipitation  
Precipitation 0.70 in - - ()
Sea Level Pressure  
Sea Level Pressure 29.49 in    
Wind  
Wind Speed 9 mph (SE)    
Max Wind Speed 17 mph    
Max Gust Speed 28 mph    
Visibility 5 miles    
Events Rain    
Averages and records for this station are not official NWS values.
T = Trace of Precipitation, MM = Missing Value Source: NWS Daily Summary

Daily Weather History Graph

Daily Weather History Graph

Search for Another Location

Airport or City:

Trip Planner

Search our weather history database for the weather conditions in past years. The results will help you decide how hot, cold, wet, or windy it might be!

Date:

Astronomy

Oct. 19, 2011 Rise Set
Actual Time 7:12 AM EDT 6:17 PM EDT
Civil Twilight 6:46 AM EDT 6:44 PM EDT
Nautical Twilight 6:15 AM EDT 7:14 PM EDT
Astronomical Twilight 5:44 AM EDT 7:45 PM EDT
Moon No Moon Rise 1:40 PM EDT (10/19)
Length of Visible Light 11h 57m
Length of Day
11h 04m
Waning Gibbous, 55% of the Moon is Illuminated
Oct 19
Waning Gibbous
Oct 19
Last Quarter
Oct 26
New
Nov 2
First Quarter
Nov 10
Full

Hourly Weather History & Observations

Time (EDT) Temp. Dew Point Humidity Pressure Visibility Wind Dir Wind Speed Gust Speed Precip Events Conditions
12:53 AM 66.9 °F 66.0 °F 97% 29.78 in 9.0 mi SW 3.5 mph - N/A   Partly Cloudy
1:53 AM 66.9 °F 64.9 °F 93% 29.77 in 8.0 mi Calm Calm - 0.01 in   Mostly Cloudy
2:53 AM 66.0 °F 64.9 °F 96% 29.71 in 8.0 mi NNE 5.8 mph - 0.00 in   Partly Cloudy
3:53 AM 66.9 °F 64.9 °F 93% 29.68 in 10.0 mi East 5.8 mph - N/A   Scattered Clouds
4:53 AM 66.0 °F 64.9 °F 96% 29.64 in 6.0 mi East 15.0 mph 21.9 mph 0.03 in Rain Light Rain
5:15 AM 66.2 °F 64.4 °F 94% 29.63 in 5.0 mi ESE 16.1 mph 25.3 mph 0.02 in Rain Light Rain
5:53 AM 64.0 °F 63.0 °F 96% 29.61 in 4.0 mi East 15.0 mph - 0.06 in Rain Rain
5:58 AM 64.4 °F 62.6 °F 94% 29.60 in 4.0 mi East 12.7 mph - 0.01 in Rain Light Rain
6:10 AM 64.4 °F 64.4 °F 100% 29.61 in 7.0 mi ENE 15.0 mph 19.6 mph 0.01 in Rain Light Rain
6:14 AM 64.4 °F 64.4 °F 100% 29.60 in 7.0 mi ENE 10.4 mph - 0.01 in Rain Light Rain
6:33 AM 64.4 °F 64.4 °F 100% 29.59 in 3.0 mi ENE 11.5 mph 18.4 mph 0.11 in Rain Rain
6:43 AM 66.2 °F 64.4 °F 94% 29.60 in 4.0 mi East 8.1 mph - 0.12 in Rain Light Rain
6:57 AM 64.4 °F 64.4 °F 100% 29.60 in 2.5 mi ESE 17.3 mph 23.0 mph 0.03 in Rain Rain
7:10 AM 64.4 °F 62.6 °F 94% 29.58 in 3.0 mi East 11.5 mph - 0.08 in Rain Rain
7:22 AM 64.4 °F 62.6 °F 94% 29.57 in 2.5 mi East 17.3 mph 23.0 mph 0.13 in Rain Rain
7:37 AM 64.4 °F 62.6 °F 94% 29.57 in 3.0 mi East 15.0 mph 26.5 mph 0.16 in Rain Light Rain
7:39 AM 64.4 °F 62.6 °F 94% 29.57 in 2.5 mi East 15.0 mph 26.5 mph 0.17 in Rain Rain
7:45 AM 64.4 °F 62.6 °F 94% 29.58 in 1.0 mi East 15.0 mph 26.5 mph 0.25 in Rain Heavy Rain
7:53 AM 64.0 °F 62.1 °F 93% 29.58 in 1.0 mi East 15.0 mph 19.6 mph 0.28 in Rain Rain
8:22 AM 64.4 °F 62.6 °F 94% 29.56 in 1.2 mi ENE 11.5 mph - 0.15 in Rain Rain
8:30 AM 64.4 °F 62.6 °F 94% 29.56 in 1.2 mi ENE 10.4 mph - 0.18 in Rain Rain
8:45 AM 64.4 °F 62.6 °F 94% 29.55 in 2.0 mi NNE 8.1 mph - 0.22 in Rain Light Rain
8:53 AM 64.0 °F 63.0 °F 96% 29.54 in 2.5 mi NE 8.1 mph - 0.23 in Rain Light Rain
9:02 AM 64.4 °F 62.6 °F 94% 29.53 in 4.0 mi NE 9.2 mph - 0.01 in Rain Light Rain
9:43 AM 66.2 °F 66.2 °F 100% 29.51 in 5.0 mi ESE 13.8 mph 18.4 mph 0.01 in   Overcast
9:53 AM 66.9 °F 66.0 °F 97% 29.51 in 6.0 mi ESE 11.5 mph 19.6 mph 0.01 in   Overcast
10:26 AM 68.0 °F 66.2 °F 94% 29.50 in 4.0 mi SE 10.4 mph - N/A   Overcast
10:40 AM 68.0 °F 68.0 °F 100% 29.50 in 2.5 mi Variable 6.9 mph - N/A   Overcast
10:53 AM 68.0 °F 68.0 °F 100% 29.49 in 1.8 mi Variable 6.9 mph - N/A   Overcast
11:27 AM 68.0 °F 68.0 °F 100% 29.49 in 3.0 mi Variable 6.9 mph - N/A   Overcast
12:05 PM 69.8 °F 66.2 °F 88% 29.47 in 6.0 mi South 6.9 mph - N/A   Overcast
12:53 PM 70.0 °F 68.0 °F 93% 29.46 in 8.0 mi South 9.2 mph - N/A   Overcast
1:09 PM 69.8 °F 68.0 °F 94% 29.46 in 7.0 mi South 8.1 mph - N/A   Overcast
1:53 PM 69.1 °F 66.9 °F 93% 29.45 in 8.0 mi Variable 5.8 mph - N/A   Overcast
2:53 PM 69.1 °F 68.0 °F 96% 29.44 in 6.0 mi Variable 5.8 mph - N/A   Overcast
3:41 PM 69.8 °F 68.0 °F 94% 29.42 in 7.0 mi Variable 3.5 mph - 0.00 in   Overcast
3:53 PM 69.1 °F 66.9 °F 93% 29.43 in 8.0 mi SSE 5.8 mph - 0.00 in   Overcast
4:15 PM 68.0 °F 66.2 °F 94% 29.42 in 1.8 mi SSE 3.5 mph - 0.04 in Rain Rain
4:32 PM 68.0 °F 66.2 °F 94% 29.41 in 3.0 mi South 3.5 mph - 0.06 in Rain Light Rain
4:45 PM 68.0 °F 66.2 °F 94% 29.41 in 3.0 mi SSE 4.6 mph - 0.06 in Rain Light Rain
4:53 PM 68.0 °F 66.9 °F 96% 29.40 in 5.0 mi Calm Calm - 0.06 in   Overcast
5:27 PM 68.0 °F 66.2 °F 94% 29.39 in 2.5 mi SSE 6.9 mph - 0.01 in Rain Light Rain
5:34 PM 68.0 °F 66.2 °F 94% 29.39 in 2.5 mi SSE 8.1 mph - 0.02 in Rain Light Rain
5:42 PM 68.0 °F 66.2 °F 94% 29.39 in 5.0 mi SE 6.9 mph - 0.02 in Rain Light Rain
5:53 PM 68.0 °F 66.9 °F 96% 29.39 in 7.0 mi Variable 6.9 mph - 0.02 in   Overcast
6:27 PM 69.8 °F 68.0 °F 94% 29.36 in 8.0 mi Variable 5.8 mph - N/A   Overcast
6:53 PM 70.0 °F 69.1 °F 97% 29.35 in 8.0 mi South 8.1 mph 16.1 mph N/A   Overcast
7:10 PM 69.8 °F 69.8 °F 100% 29.35 in 7.0 mi South 10.4 mph 21.9 mph N/A   Overcast
7:37 PM 69.8 °F 69.8 °F 100% 29.34 in 7.0 mi SSE 9.2 mph 20.7 mph N/A   Overcast
7:53 PM 70.0 °F 69.1 °F 97% 29.33 in 6.0 mi SSE 9.2 mph - N/A   Overcast
8:08 PM 69.8 °F 69.8 °F 100% 29.33 in 5.0 mi SSE 11.5 mph 19.6 mph N/A   Overcast
8:15 PM 69.8 °F 69.8 °F 100% 29.33 in 4.0 mi South 11.5 mph 21.9 mph N/A   Overcast
8:25 PM 69.8 °F 69.8 °F 100% 29.33 in 4.0 mi South 11.5 mph 19.6 mph N/A   Overcast
8:53 PM 70.0 °F 69.1 °F 97% 29.34 in 5.0 mi South 10.4 mph 21.9 mph N/A   Overcast
9:53 PM 69.1 °F 68.0 °F 96% 29.36 in 6.0 mi SSW 8.1 mph 17.3 mph N/A   Overcast
10:53 PM 70.0 °F 68.0 °F 93% 29.34 in 8.0 mi SSW 15.0 mph 24.2 mph N/A   Overcast
11:17 PM 69.8 °F 68.0 °F 94% 29.35 in 9.0 mi SSW 17.3 mph 25.3 mph N/A   Overcast
11:53 PM 70.0 °F 68.0 °F 93% 29.36 in 10.0 mi SW 16.1 mph 27.6 mph N/A   Overcast